Location: Mococo
(38.0255°N, 122.1161°W)
Time: 12:44:15
(UTC+00:00)

Aureole 1 Rocket - Pass Details

Date: 13 February 2026
Orbit: 374 x 1156 km, 73.9° (Epoch: 16 March)

Event Time Altitude Azimuth Distance (km) Brightness Sun altitude
Rises 13:57:58 0° 196° (SSW) 4,010 7.1 -12.9°
Reaches altitude 10° 14:00:42 10° 196° (SSW) 3,054 6.5 -12.4°
Maximum altitude 14:08:05 89° 111° (ESE) 1,116 4.3 -10.9°
Drops below altitude 10° 14:14:50 10° 19° (NNE) 2,791 6.5 -9.6°
Sets 14:17:14 0° 19° (NNE) 3,649 7.1 -9.2°
